Tracking 22881 objects as of 19-Apr-2021
HD Live streaming from Space Station
objects crossing your sky now

STARLINK-1504

Track STARLINK-1504 now!
10-day predictions
STARLINK-1504 is classified as:


NORAD ID: 45746
Int'l Code: 2020-038S
Perigee: 553.0 km
Apogee: 555.7 km
Inclination: 53.1 °
Period: 95.6 minutes
Semi major axis: 6925 km
RCS: Unknown
Launch date: June 13, 2020
Source: United States (US)
Launch site: AIR FORCE EASTERN TEST RANGE (AFETR)
aabbcc
Your satellite tracking list
Your tracking list is empty




NASA's NSSDC Master Catalog

Two Line Element Set (TLE):
1 45746U 20038S   21108.88857833  .00002551  00000-0  19012-3 0  9990
2 45746  53.0583 333.3894 0001956  86.8763 273.2450 15.06394517 47021
Source of the keplerian elements: AFSPC